Home > Weather > Versoix > Past weeks

Flag for Switzerland Past Weather in Versoix, Geneva, Switzerland — Yesterday and Last 2 Weeks

Now
92 °F

Hot.


Feels Like: 90 °F
Forecast: 60 / 89 °F
Wind: 6 mph from Southwest

Location: Geneve-Cointrin

Current Time: Aug 25, 2016 at 5:24:43 PM

Latest Report: Aug 25, 2016 at 4:00 PM


Visibility: N/A

Pressure: 29.96 "Hg

Humidity: 31%

Dew Point: 57 °F

Location of VersoixLocation

Past Weather in Versoix — Graph

°F

Versoix Temperature Yesterday

Maximum temperature yesterday: 84 °F (at 6:00 PM)
Minimum temperature yesterday: 57 °F (at 6:00 AM)
Average temperature yesterday: 71 °F

High & Low Weather Summary for the Past Weeks

 TemperatureHumidityPressure
High92 °F (Aug 25, 4:00 PM)95% (Aug 19, 4:00 AM)30.38 "Hg (Aug 19, 4:00 AM)
Low48 °F (Aug 22, 7:00 AM)30% (Aug 16, 3:00 PM)29.78 "Hg (Aug 17, 6:00 PM)
Average68 °F66%30.11 "Hg
* Reported Aug 10 4:00 PM — Aug 25 4:00 PM, Versoix, Weather by CustomWeather, © 2016

Note: Actual official high and low records may vary slightly from our data, if they occured in-between our weather recording intervals... More about our weather records

Advertising

Versoix Weather History for the Previous 24 Hours

Scroll right to see more
 ConditionsComfort  
Time TempWeatherWind HumidityBarometerVisibility
4:00 PM
Thu, Aug 25
92 °FHot.6 mph31%29.96 "HgN/A
3:00 PM90 °FHot.3 mph33%29.97 "HgN/A
2:00 PM86 °FPassing clouds.6 mph41%30.00 "Hg43 mi
1:00 PM84 °FWarm.3 mph49%30.02 "HgN/A
12:00 PM81 °FWarm.2 mph55%30.04 "HgN/A
11:00 AM78 °FSunny.2 mph60%30.07 "Hg37 mi
10:00 AM74 °FMild.2 mph67%30.09 "HgN/A
9:00 AM69 °FMild.1 mph79%30.10 "HgN/A
8:00 AM64 °FSunny.1 mph90%30.11 "Hg31 mi
7:00 AM62 °FCool.1 mph92%30.11 "HgN/A
6:00 AM62 °FCool.1 mph94%30.11 "HgN/A
5:00 AM63 °FClear.1 mph92%30.10 "Hg37 mi
3:00 AM64 °FMild.No wind90%30.10 "HgN/A
2:00 AM65 °FClear.1 mph89%30.10 "Hg43 mi
1:00 AM66 °FMild.1 mph88%30.10 "HgN/A
12:00 AM68 °FMild.1 mph82%30.09 "HgN/A
11:00 PM
Wed, Aug 24
69 °FClear.2 mph80%30.09 "Hg43 mi
10:00 PM71 °FMild.1 mph74%30.08 "HgN/A
9:00 PM72 °FMild.1 mph71%30.07 "HgN/A
8:00 PM79 °FSunny.3 mph57%30.03 "Hg40 mi
7:00 PM84 °FWarm.7 mph45%30.03 "HgN/A
6:00 PM84 °FWarm.7 mph45%30.03 "HgN/A
5:00 PM84 °FSunny.6 mph44%30.05 "Hg43 mi
Weather by CustomWeather, © 2016

See weather overviewHow to use our weather pages